Time,TemperatureF,DewpointF,PressureIn,WindDirection,WindDirectionDegrees,WindSpeedMPH,WindSpeedGustMPH,Humidity,HourlyPrecipIn,Conditions,Clouds,dailyrainin,SolarRadiationWatts/m^2,SoftwareType,DateUTC
2013-02-28 00:01:00,43.0,24.0,-100.00,NNW,334,9.0,17.0,47,0.00,,,0.00,0.000000,,2013-02-28 06:01:00,
2013-02-28 00:32:00,42.0,23.0,-100.00,NNW,339,10.0,19.0,47,0.00,,,0.00,0.000000,,2013-02-28 06:32:00,
2013-02-28 00:42:00,42.0,23.0,-100.00,NNW,339,10.0,19.0,47,0.00,,,0.00,0.000000,,2013-02-28 06:42:00,
2013-02-28 00:52:00,42.0,23.0,-100.00,NNW,339,10.0,19.0,47,0.00,,,0.00,0.000000,,2013-02-28 06:52:00,
2013-02-28 01:01:00,42.0,23.0,-100.00,NNW,339,10.0,19.0,47,0.00,,,0.00,0.000000,,2013-02-28 07:01:00,
2013-02-28 01:32:00,41.0,24.0,-100.00,NNW,343,9.0,16.0,51,0.00,,,0.00,0.000000,,2013-02-28 07:32:00,
2013-02-28 01:42:00,41.0,24.0,-100.00,NNW,343,9.0,16.0,51,0.00,,,0.00,0.000000,,2013-02-28 07:42:00,
2013-02-28 01:52:00,41.0,24.0,-100.00,NNW,343,9.0,16.0,51,0.00,,,0.00,0.000000,,2013-02-28 07:52:00,
2013-02-28 02:01:00,41.0,24.0,-100.00,NNW,343,9.0,16.0,51,0.00,,,0.00,0.000000,,2013-02-28 08:01:00,
2013-02-28 02:32:00,40.0,26.0,-100.00,NNW,340,7.0,15.0,57,0.00,,,0.00,0.000000,,2013-02-28 08:32:00,
2013-02-28 02:42:00,40.0,26.0,-100.00,NNW,340,7.0,15.0,57,0.00,,,0.00,0.000000,,2013-02-28 08:42:00,
2013-02-28 02:53:00,40.0,26.0,-100.00,NNW,340,7.0,15.0,57,0.00,,,0.00,0.000000,,2013-02-28 08:53:00,
2013-02-28 03:03:00,40.0,26.0,-100.00,NNW,340,7.0,15.0,57,0.00,,,0.00,0.000000,,2013-02-28 09:03:00,
2013-02-28 03:32:00,39.0,27.0,-100.00,NW,326,8.0,15.0,61,0.00,,,0.00,0.000000,,2013-02-28 09:32:00,
2013-02-28 03:42:00,39.0,27.0,-100.00,NW,326,8.0,15.0,61,0.00,,,0.00,0.000000,,2013-02-28 09:42:00,
2013-02-28 03:52:00,39.0,27.0,-100.00,NW,326,8.0,15.0,61,0.00,,,0.00,0.000000,,2013-02-28 09:52:00,
2013-02-28 04:02:00,39.0,27.0,-100.00,NW,326,8.0,15.0,61,0.00,,,0.00,0.000000,,2013-02-28 10:02:00,
2013-02-28 04:32:00,38.0,27.0,-100.00,NNW,332,8.0,14.0,65,0.00,,,0.00,0.000000,,2013-02-28 10:32:00,
2013-02-28 04:42:00,38.0,27.0,-100.00,NNW,332,8.0,14.0,65,0.00,,,0.00,0.000000,,2013-02-28 10:42:00,
2013-02-28 04:52:00,38.0,27.0,-100.00,NNW,332,8.0,14.0,65,0.00,,,0.00,0.000000,,2013-02-28 10:52:00,
2013-02-28 05:01:00,38.0,27.0,-100.00,NNW,332,8.0,14.0,65,0.00,,,0.00,0.000000,,2013-02-28 11:01:00,
2013-02-28 05:32:00,38.0,28.0,-100.00,NNW,332,7.0,15.0,67,0.00,,,0.00,0.000000,,2013-02-28 11:32:00,
2013-02-28 05:42:00,38.0,28.0,-100.00,NNW,332,7.0,15.0,67,0.00,,,0.00,0.000000,,2013-02-28 11:42:00,
2013-02-28 05:52:00,38.0,28.0,-100.00,NNW,332,7.0,15.0,67,0.00,,,0.00,0.000000,,2013-02-28 11:52:00,
2013-02-28 06:02:00,38.0,28.0,-100.00,NNW,332,7.0,15.0,67,0.00,,,0.00,0.000000,,2013-02-28 12:02:00,
2013-02-28 06:32:00,37.0,27.0,-100.00,NNW,330,7.0,15.0,67,0.00,,,0.00,0.000000,,2013-02-28 12:32:00,
2013-02-28 06:42:00,37.0,27.0,-100.00,NNW,330,7.0,15.0,67,0.00,,,0.00,0.000000,,2013-02-28 12:42:00,
2013-02-28 06:52:00,37.0,27.0,-100.00,NNW,330,7.0,15.0,67,0.00,,,0.00,0.000000,,2013-02-28 12:52:00,
2013-02-28 07:02:00,37.0,27.0,-100.00,NNW,330,7.0,15.0,67,0.00,,,0.00,0.000000,,2013-02-28 13:02:00,
2013-02-28 07:32:00,37.0,27.0,-100.00,NNW,327,7.0,14.0,66,0.00,,,0.00,2.000000,,2013-02-28 13:32:00,
2013-02-28 07:42:00,37.0,27.0,-100.00,NNW,327,7.0,14.0,66,0.00,,,0.00,2.000000,,2013-02-28 13:42:00,
2013-02-28 07:52:00,37.0,27.0,-100.00,NNW,327,7.0,14.0,66,0.00,,,0.00,2.000000,,2013-02-28 13:52:00,
2013-02-28 08:01:00,37.0,27.0,-100.00,NNW,327,7.0,14.0,66,0.00,,,0.00,2.000000,,2013-02-28 14:01:00,
2013-02-28 08:32:00,40.0,28.0,-100.00,NNW,331,7.0,14.0,63,0.00,,,0.00,39.000000,,2013-02-28 14:32:00,
2013-02-28 08:42:00,40.0,28.0,-100.00,NNW,331,7.0,14.0,63,0.00,,,0.00,39.000000,,2013-02-28 14:42:00,
2013-02-28 08:52:00,40.0,28.0,-100.00,NNW,331,7.0,14.0,63,0.00,,,0.00,39.000000,,2013-02-28 14:52:00,
2013-02-28 09:02:00,40.0,28.0,-100.00,NNW,331,7.0,14.0,63,0.00,,,0.00,39.000000,,2013-02-28 15:02:00,
2013-02-28 09:32:00,43.0,28.0,-100.00,NNW,336,8.0,14.0,55,0.00,,,0.00,208.000000,,2013-02-28 15:32:00,
2013-02-28 09:42:00,43.0,28.0,-100.00,NNW,336,8.0,14.0,55,0.00,,,0.00,208.000000,,2013-02-28 15:42:00,
2013-02-28 10:01:00,43.0,28.0,-100.00,NNW,336,8.0,14.0,55,0.00,,,0.00,208.000000,,2013-02-28 16:01:00,
2013-02-28 10:32:00,47.0,27.0,-100.00,NNW,345,9.0,16.0,46,0.00,,,0.00,561.000000,,2013-02-28 16:32:00,
2013-02-28 10:43:00,47.0,27.0,-100.00,NNW,345,9.0,16.0,46,0.00,,,0.00,561.000000,,2013-02-28 16:43:00,
2013-02-28 10:52:00,47.0,27.0,-100.00,NNW,345,9.0,16.0,46,0.00,,,0.00,561.000000,,2013-02-28 16:52:00,
2013-02-28 11:02:00,47.0,27.0,-100.00,NNW,345,9.0,16.0,46,0.00,,,0.00,561.000000,,2013-02-28 17:02:00,
2013-02-28 11:32:00,50.0,28.0,-100.00,NNW,345,10.0,18.0,42,0.00,,,0.00,747.000000,,2013-02-28 17:32:00,
2013-02-28 11:42:00,50.0,28.0,-100.00,NNW,345,10.0,18.0,42,0.00,,,0.00,747.000000,,2013-02-28 17:42:00,
2013-02-28 11:53:00,50.0,28.0,-100.00,NNW,345,10.0,18.0,42,0.00,,,0.00,747.000000,,2013-02-28 17:53:00,
2013-02-28 12:02:00,50.0,28.0,-100.00,NNW,345,10.0,18.0,42,0.00,,,0.00,747.000000,,2013-02-28 18:02:00,
2013-02-28 12:32:00,53.0,28.0,-100.00,NW,324,8.0,18.0,38,0.00,,,0.00,873.000000,,2013-02-28 18:32:00,
2013-02-28 12:42:00,53.0,28.0,-100.00,NW,324,8.0,18.0,38,0.00,,,0.00,873.000000,,2013-02-28 18:42:00,
2013-02-28 12:52:00,53.0,28.0,-100.00,NW,324,8.0,18.0,38,0.00,,,0.00,873.000000,,2013-02-28 18:52:00,
2013-02-28 13:02:00,53.0,28.0,-100.00,NW,324,8.0,18.0,38,0.00,,,0.00,873.000000,,2013-02-28 19:02:00,
2013-02-28 13:32:00,56.0,27.0,-100.00,NNW,328,9.0,18.0,33,0.00,,,0.00,921.000000,,2013-02-28 19:32:00,
2013-02-28 13:42:00,56.0,27.0,-100.00,NNW,328,9.0,18.0,33,0.00,,,0.00,921.000000,,2013-02-28 19:42:00,
2013-02-28 13:52:00,56.0,27.0,-100.00,NNW,328,9.0,18.0,33,0.00,,,0.00,921.000000,,2013-02-28 19:52:00,
2013-02-28 14:01:00,56.0,27.0,-100.00,NNW,328,9.0,18.0,33,0.00,,,0.00,921.000000,,2013-02-28 20:01:00,
2013-02-28 14:32:00,58.0,27.0,-100.00,NNW,331,11.0,21.0,30,0.00,,,0.00,894.000000,,2013-02-28 20:32:00,
2013-02-28 14:42:00,58.0,27.0,-100.00,NNW,331,11.0,21.0,30,0.00,,,0.00,894.000000,,2013-02-28 20:42:00,
2013-02-28 14:52:00,58.0,27.0,-100.00,NNW,331,11.0,21.0,30,0.00,,,0.00,894.000000,,2013-02-28 20:52:00,
2013-02-28 15:02:00,58.0,27.0,-100.00,NNW,331,11.0,21.0,30,0.00,,,0.00,894.000000,,2013-02-28 21:02:00,
2013-02-28 15:32:00,59.0,26.0,-100.00,NW,316,10.0,19.0,28,0.00,,,0.00,796.000000,,2013-02-28 21:32:00,
2013-02-28 15:42:00,59.0,26.0,-100.00,NW,316,10.0,19.0,28,0.00,,,0.00,796.000000,,2013-02-28 21:42:00,
2013-02-28 15:52:00,59.0,26.0,-100.00,NW,316,10.0,19.0,28,0.00,,,0.00,796.000000,,2013-02-28 21:52:00,
2013-02-28 16:01:00,59.0,26.0,-100.00,NW,316,10.0,19.0,28,0.00,,,0.00,796.000000,,2013-02-28 22:01:00,
2013-02-28 16:32:00,60.0,27.0,-100.00,NNW,336,11.0,20.0,28,0.00,,,0.00,634.000000,,2013-02-28 22:32:00,
2013-02-28 16:42:00,60.0,27.0,-100.00,NNW,336,11.0,20.0,28,0.00,,,0.00,634.000000,,2013-02-28 22:42:00,
2013-02-28 16:52:00,60.0,27.0,-100.00,NNW,336,11.0,20.0,28,0.00,,,0.00,634.000000,,2013-02-28 22:52:00,
2013-02-28 17:01:00,60.0,27.0,-100.00,NNW,336,11.0,20.0,28,0.00,,,0.00,634.000000,,2013-02-28 23:01:00,
2013-02-28 17:32:00,58.0,22.0,-100.00,NNW,338,12.0,21.0,25,0.00,,,0.00,418.000000,,2013-02-28 23:32:00,
2013-02-28 17:42:00,58.0,22.0,-100.00,NNW,338,12.0,21.0,25,0.00,,,0.00,418.000000,,2013-02-28 23:42:00,
2013-02-28 17:53:00,58.0,22.0,-100.00,NNW,338,12.0,21.0,25,0.00,,,0.00,418.000000,,2013-02-28 23:53:00,
2013-02-28 18:01:00,58.0,22.0,-100.00,NNW,338,12.0,21.0,25,0.00,,,0.00,418.000000,,2013-03-01 00:01:00,
2013-02-28 18:32:00,55.0,23.0,-100.00,NNW,328,9.0,19.0,29,0.00,,,0.00,167.000000,,2013-03-01 00:32:00,
2013-02-28 18:42:00,55.0,23.0,-100.00,NNW,328,9.0,19.0,29,0.00,,,0.00,167.000000,,2013-03-01 00:42:00,
2013-02-28 18:52:00,55.0,23.0,-100.00,NNW,328,9.0,19.0,29,0.00,,,0.00,167.000000,,2013-03-01 00:52:00,
2013-02-28 19:01:00,55.0,23.0,-100.00,NNW,328,9.0,19.0,29,0.00,,,0.00,167.000000,,2013-03-01 01:01:00,
2013-02-28 19:32:00,53.0,23.0,-100.00,NNW,334,6.0,15.0,31,0.00,,,0.00,5.000000,,2013-03-01 01:32:00,
2013-02-28 19:42:00,53.0,23.0,-100.00,NNW,334,6.0,15.0,31,0.00,,,0.00,5.000000,,2013-03-01 01:42:00,
2013-02-28 19:52:00,53.0,23.0,-100.00,NNW,334,6.0,15.0,31,0.00,,,0.00,5.000000,,2013-03-01 01:52:00,
2013-02-28 20:01:00,53.0,23.0,-100.00,NNW,334,6.0,15.0,31,0.00,,,0.00,5.000000,,2013-03-01 02:01:00,
2013-02-28 20:32:00,52.0,25.0,-100.00,NW,326,6.0,14.0,35,0.00,,,0.00,0.000000,,2013-03-01 02:32:00,
2013-02-28 20:42:00,52.0,25.0,-100.00,NW,326,6.0,14.0,35,0.00,,,0.00,0.000000,,2013-03-01 02:42:00,
2013-02-28 20:52:00,52.0,25.0,-100.00,NW,326,6.0,14.0,35,0.00,,,0.00,0.000000,,2013-03-01 02:52:00,
2013-02-28 21:01:00,52.0,25.0,-100.00,NW,326,6.0,14.0,35,0.00,,,0.00,0.000000,,2013-03-01 03:01:00,
2013-02-28 21:32:00,50.0,23.0,-100.00,NNW,337,6.0,10.0,34,0.00,,,0.00,0.000000,,2013-03-01 03:32:00,
2013-02-28 21:42:00,50.0,23.0,-100.00,NNW,337,6.0,10.0,34,0.00,,,0.00,0.000000,,2013-03-01 03:42:00,
2013-02-28 21:52:00,50.0,23.0,-100.00,NNW,337,6.0,10.0,34,0.00,,,0.00,0.000000,,2013-03-01 03:52:00,
2013-02-28 22:01:00,50.0,23.0,-100.00,NNW,337,6.0,10.0,34,0.00,,,0.00,0.000000,,2013-03-01 04:01:00,
2013-02-28 22:42:00,47.0,23.0,-100.00,NNW,346,3.0,10.0,39,0.00,,,0.00,0.000000,,2013-03-01 04:42:00,
2013-02-28 22:52:00,47.0,23.0,-100.00,NNW,346,3.0,10.0,39,0.00,,,0.00,0.000000,,2013-03-01 04:52:00,
2013-02-28 23:02:00,47.0,23.0,-100.00,NNW,346,3.0,10.0,39,0.00,,,0.00,0.000000,,2013-03-01 05:02:00,
2013-02-28 23:33:00,42.0,22.0,-100.00,NE,49,3.0,5.0,44,0.00,,,0.00,0.000000,,2013-03-01 05:33:00,
2013-02-28 23:42:00,42.0,22.0,-100.00,NE,49,3.0,5.0,44,0.00,,,0.00,0.000000,,2013-03-01 05:42:00,
2013-02-28 23:53:00,42.0,22.0,-100.00,NE,49,3.0,5.0,44,0.00,,,0.00,0.000000,,2013-03-01 05:53:00,